Madison, WI

11:00 PM CDT on July 21, 2017 (GMT -0500)
Dane County Regional-Truax

Weather History for KMSN - April, 2014

Change the Weather History Date:

Tuesday, April 15, 2014

  Actual Average Record
Temperature  
Mean Temperature 28 °F 46 °F  
Max Temperature 37 °F 57 °F 87 °F (2002)
Min Temperature 18 °F 36 °F 18 °F (1928)
Degree Days  
Heating Degree Days 37 19  
Month to date heating degree days 329 323  
Since 1 July heating degree days 7589 6772  
Cooling Degree Days 0 0  
Month to date cooling degree days 0 0  
Year to date cooling degree days 0 0  
Moisture  
Dew Point 15 °F    
Average Humidity 65    
Maximum Humidity 91    
Minimum Humidity 38    
Precipitation  
Precipitation T in 0.11 in 1.51 in (1998)
Month to date precipitation 3.35 1.66  
Year to date precipitation 6.50 6.54  
Snow  
Snow T in 0.10 in 4.50 in (1923)
Month to date snowfall 1.0 1.8  
Since 1 July snowfall 59.2 49.9  
Snow Depth T in    
Sea Level Pressure  
Sea Level Pressure 30.14 in    
Wind  
Wind Speed 5 mph (NW)    
Max Wind Speed 16 mph    
Max Gust Speed 21 mph    
Visibility 9 miles    
Events Snow    
T = Trace of Precipitation, MM = Missing Value Source: NWS Daily Summary

Daily Weather History Graph

Daily Weather History Graph

Search for Another Location

Airport or City:

Trip Planner

Search our weather history database for the weather conditions in past years. The results will help you decide how hot, cold, wet, or windy it might be!

Date:

Astronomy

Apr. 15, 2014 Rise Set
Actual Time 6:15 AM CDT 7:40 PM CDT
Civil Twilight 5:45 AM CDT 8:09 PM CDT
Nautical Twilight 5:10 AM CDT 8:45 PM CDT
Astronomical Twilight 4:32 AM CDT 9:23 PM CDT
Moon 8:22 PM CDT (4/15) 6:22 AM CDT (4/15)
Length of Visible Light 14h 24m
Length of Day
13h 24m
Full, 100% of the Moon is Illuminated
Apr 15
Full
Apr 22
Last Quarter
Apr 29
New
May 6
First Quarter
May 14
Full

Hourly Weather History & Observations

Time (CDT) Temp. Windchill Dew Point Humidity Pressure Visibility Wind Dir Wind Speed Gust Speed Precip Events Conditions
12:27 AM 26.1 °F 18.4 °F 19.0 °F 75% 30.03 in 4.0 mi NW 6.9 mph - 0.00 in Snow Light Snow
12:39 AM 26.1 °F 15.0 °F 19.0 °F 75% 30.04 in 9.0 mi North 12.7 mph 19.6 mph 0.00 in   Overcast
12:53 AM 26.1 °F 16.2 °F 16.0 °F 66% 30.07 in 5.0 mi North 10.4 mph 20.7 mph 0.00 in Snow Light Snow
1:53 AM 24.1 °F 18.2 °F 14.0 °F 65% 30.06 in 10.0 mi NNW 4.6 mph - 0.00 in   Clear
2:53 AM 21.9 °F 15.7 °F 16.0 °F 78% 30.07 in 10.0 mi West 4.6 mph - N/A   Clear
3:53 AM 19.9 °F - 17.1 °F 89% 30.08 in 10.0 mi Calm Calm - N/A   Clear
4:53 AM 19.0 °F 13.9 °F 16.0 °F 88% 30.09 in 10.0 mi WNW 3.5 mph - N/A   Clear
5:53 AM 19.0 °F 13.9 °F 16.0 °F 88% 30.11 in 10.0 mi NW 3.5 mph - N/A   Partly Cloudy
6:53 AM 19.9 °F 14.9 °F 17.1 °F 89% 30.12 in 10.0 mi WNW 3.5 mph - N/A   Partly Cloudy
7:53 AM 24.1 °F 18.2 °F 18.0 °F 77% 30.14 in 10.0 mi WNW 4.6 mph - N/A   Partly Cloudy
8:53 AM 27.0 °F 20.5 °F 14.0 °F 58% 30.14 in 10.0 mi NW 5.8 mph - N/A   Partly Cloudy
9:53 AM 28.9 °F 23.9 °F 9.0 °F 43% 30.16 in 10.0 mi Variable 4.6 mph - N/A   Partly Cloudy
10:53 AM 30.9 °F 24.3 °F 15.1 °F 52% 30.17 in 10.0 mi NW 6.9 mph - N/A   Scattered Clouds
11:53 AM 32.0 °F 23.0 °F 12.0 °F 44% 30.16 in 10.0 mi West 11.5 mph - N/A   Mostly Cloudy
12:53 PM 33.1 °F 23.4 °F 12.0 °F 42% 30.17 in 10.0 mi WNW 13.8 mph 20.7 mph N/A   Mostly Cloudy
1:53 PM 34.0 °F 26.0 °F 14.0 °F 44% 30.17 in 10.0 mi West 10.4 mph 17.3 mph N/A   Mostly Cloudy
2:53 PM 34.0 °F 26.0 °F 14.0 °F 44% 30.17 in 10.0 mi WNW 10.4 mph 17.3 mph N/A   Mostly Cloudy
3:53 PM 34.0 °F 28.0 °F 14.0 °F 44% 30.15 in 10.0 mi NW 6.9 mph - N/A   Mostly Cloudy
4:53 PM 36.0 °F 32.1 °F 15.1 °F 43% 30.15 in 10.0 mi WNW 4.6 mph - N/A   Mostly Cloudy
5:53 PM 36.0 °F 30.3 °F 12.9 °F 39% 30.15 in 10.0 mi WNW 6.9 mph - N/A   Mostly Cloudy
6:53 PM 35.1 °F 32.2 °F 12.9 °F 40% 30.16 in 10.0 mi Variable 3.5 mph - N/A   Scattered Clouds
7:53 PM 33.1 °F - 15.1 °F 48% 30.17 in 10.0 mi Calm Calm - N/A   Partly Cloudy
8:53 PM 30.9 °F - 15.1 °F 52% 30.19 in 10.0 mi Calm Calm - N/A   Clear
9:53 PM 28.9 °F - 17.1 °F 61% 30.19 in 10.0 mi Calm Calm - N/A   Clear
10:53 PM 27.0 °F - 17.1 °F 66% 30.21 in 10.0 mi Calm Calm - N/A   Mostly Cloudy
11:53 PM 27.0 °F - 18.0 °F 69% 30.22 in 10.0 mi Calm Calm - N/A   Mostly Cloudy